Regional Weather Roundup
Issued by NWS

Home | Current Version | Previous Version | Text Only | Print | Product List | Glossary Off
Versions: 1 2 3 4 5 6 7 8 9 10 11 12 13 14 15 16 17 18 19 20 21 22 23 24 25 26 27 28 29 30 31 32 33 34 35 36 37 38 39 40 41 42 43 44 45 46 47 48 49 50

000
ASUS43 KTOP 162208
RWRKS

WEATHER ROUNDUP FOR KANSAS
NATIONAL WEATHER SERVICE GOODLAND KS
400 PM CST SAT DEC 16 2017

NOTE:  "FAIR" INDICATES FEW OR NO CLOUDS BELOW 12,000 FEET WITH NO
SIGNIFICANT WEATHER AND/OR OBSTRUCTIONS TO VISIBILITY.

KSZ001>006-013>018-027>032-041>047-162300-
NORTHWEST KANSAS

CITY           SKY/WX    TMP DP  RH WIND       PRES   REMARKS
GOODLAND       SUNNY     52  17  25 NE17G30   29.75R
HAYS           SUNNY     61  22  22 S13       29.75R
HILL CITY      SUNNY     53  19  26 E13       29.77R
RUSSELL        SUNNY     60  24  25 S15       29.75R
$$

KSZ061>065-074>080-084>089-162300-
SOUTHWEST KANSAS

CITY           SKY/WX    TMP DP  RH WIND       PRES   REMARKS
DODGE CITY     SUNNY     61  19  19 S17G28    29.73R
ELKHART        SUNNY     62  24  23 S20       29.67S
GARDEN CITY    SUNNY     61  16  17 S21G28    29.69S
GREAT BEND     SUNNY     60  23  24 S20G26    29.77R
LIBERAL        SUNNY     61  15  16 S22       29.70S
PRATT          SUNNY     59  15  17 S17G24    29.78S
$$

KSZ066>073-081>083-090>101-162300-
SOUTHEAST KANSAS

CITY           SKY/WX    TMP DP  RH WIND       PRES   REMARKS
CHANUTE        CLEAR     58  24  27 S16G24    29.92R
COFFEYVILLE    CLOUDY    60  24  25 S16G26    29.94S
HUTCHINSON     SUNNY     59  24  26 S17G28    29.81R
MEDICINE LODGE   N/A     60  22  23 S10G23    29.79R
NEWTON         SUNNY     57  25  29 S25G31    29.83R
PARSONS        CLOUDY    57  26  30 MISG      29.94R
WICHITA INTL   MOSUNNY   61  24  24 S18G29    29.83R
WICHITA JABRA  SUNNY     58  25  28 S24G31    29.84R
WICHITA MCCONL SUNNY     60  24  25 S21G29    29.84R
WINFIELD       SUNNY     60  24  25 S24G36    29.88S
$$

KSZ007>012-019>026-033>040-048>060-102>105-162300-
NORTHEAST KANSAS

CITY           SKY/WX    TMP DP  RH WIND       PRES   REMARKS
CONCORDIA      CLEAR     54  26  34 SE6       29.81R
EMPORIA        CLEAR     59  22  24 S25G32    29.86R
LAWRENCE       CLEAR     60  25  26 S15       29.87R
MANHATTAN      CLEAR     62  24  23 S9        29.82R
MARYSVILLE     CLEAR     55  28  35 SE5       29.84R
OLATHE IND     CLEAR     57  27  31 S13       29.89R
OLATHE EXE     CLEAR     57  26  30 S13G21    29.88R
SALINA         SUNNY     60  27  28 S13G20    29.81R
TOPEKA BILLARD CLEAR     61  27  27 S13       29.85R
TOPEKA FORBES  CLEAR     61  27  27 S12       29.85R
$$




USA.gov is the U.S. government's official web portal to all federal, state and local government web resources and services.